Location: Brachbach
(49.1847°N, 9.7240°E)
Time: 14:11:57
(UTC+00:00)

CZ-2C R/B - Pass Details

Date: 14 August 2024
Orbit: 782 x 869 km, 98.3° (Epoch: 15 September)

Event Time Altitude Azimuth Distance (km) Brightness Sun altitude
Exits shadow 02:55:48 12° 258° (WSW) 2,325 4.4 -11.5°
Maximum altitude 02:57:17 13° 275° (W) 2,242 4.5 -11.3°
Drops below altitude 10° 02:59:47 10° 302° (WNW) 2,456 4.9 -11.0°
Sets 03:03:35 0° 329° (NNW) 3,376 5.9 -10.5°
